Location: Newark
(52.5667°N, 8.8000°W)
Time: 12:55:00
(UTC+00:00)

N. Korean satellite - Pass Details

Date: 25 January 2020
Orbit: 456 x 505 km, 97.2° (Epoch: 24 February)

Event Time Altitude Azimuth Distance (km) Brightness Sun altitude
Rises 17:55:43 0° 185° (S) 2,465 10.5 -7.4°
Reaches altitude 10° 17:57:51 10° 195° (SSW) 1,596 9.7 -7.7°
Maximum altitude 18:01:01 35° 263° (W) 756 8.3 -8.2°
Drops below altitude 10° 18:04:15 10° 331° (NNW) 1,618 9.3 -8.6°
Sets 18:06:26 0° 340° (NNW) 2,504 10.2 -8.9°
